Meteo Giornale » Osservazioni meteo Italia » Roma-Ciampino

ore: 18:50 - Osservazioni Meteo Roma-Ciampino
Lat. 41° 47' N Lon. 12° 35' E Alt. 129 metri s.l.m.

sereno Europe/Rome

31 °C

Sereno

Temp. 24 Ore

22 °C

34 °C

Ovest/Sud-Ovest

13 Km/h

Dew point 19 °C

Umidità 48 %

Visibilità  10 Km

Il sole sorge alle ore 06:00

Il sole tramonta alle ore 20:31

Data e Ora Cielo e Fenomeni T °C DP °C Um. % Pres. hPa Vis. km Vento km/h
Oggi h: 18:50 sereno Sereno 31 19 48 1011 10 O/SO 13
Oggi h: 18:20 sereno Sereno 32 19 46 1011 10 O/SO 13
Oggi h: 17:50 sereno Sereno 32 19 46 1011 10 O 14.8
Oggi h: 17:20 sereno Sereno 33 19 43 1011 10 O/SO 13
Oggi h: 16:50 sereno Sereno 34 19 41 1011 10 O 16.7
Oggi h: 16:20 sereno Sereno 34 19 41 1012 10 O/SO 14.8
Oggi h: 15:50 sereno Sereno 34 20 43 1012 10 O/SO 13
Oggi h: 15:20 sereno Sereno 33 21 49 1012 10 O 14.8
Oggi h: 14:50 sereno Sereno 34 21 46 1012 10 O 13
Oggi h: 14:20 sereno Sereno 33 21 49 1012 10 O/SO 14.8
Oggi h: 13:50 sereno Sereno 33 22 52 1013 10 O 16.7
Oggi h: 13:20 sereno Sereno 34 21 46 1013 10 O 14.8
Oggi h: 12:50 sereno Sereno 34 16 34 1013 10 NO 9.3
Oggi h: 12:20 sereno Sereno 34 16 34 1013 10 N 9.3
Oggi h: 11:50 sereno Sereno 33 16 36 1013 10 N 5.5
Oggi h: 11:20 sereno Sereno 32 17 40 1014 10 N 3.7
Oggi h: 10:50 sereno Sereno 31 17 43 1013 10 N/NE 7.4
Oggi h: 10:20 sereno Sereno 30 17 45 1014 10 N 5.5
Oggi h: 09:50 sereno Sereno 29 18 51 1014 10 N 3.7
Oggi h: 09:20 sereno Sereno 28 18 54 1014 10 N 5.5
Oggi h: 08:50 sereno Sereno 27 18 57 1014 10 N 3.7
Oggi h: 08:20 sereno Sereno 25 18 65 1014 10 N 3.7
Oggi h: 07:50 sereno Sereno 24 19 73 1013 10 N 3.7
Oggi h: 07:20 sereno Sereno 23 19 78 1013 10 N 3.7
Oggi h: 06:50 sereno Sereno 22 19 83 1013 10 N 0
Oggi h: 06:20 sereno Sereno 22 18 78 1013 10 N 1.8
Oggi h: 05:50 sereno Sereno 23 19 78 1013 10 N 5.5
Oggi h: 05:20 sereno Sereno 22 18 78 1013 10 N 1.8
Oggi h: 04:50 sereno Sereno 22 19 83 1013 10 N 3.7
Oggi h: 04:20 sereno Sereno 23 19 78 1013 10 N 3.7
Oggi h: 03:50 sereno Sereno 23 19 78 1013 10 N 3.7
Oggi h: 03:20 sereno Sereno 24 19 73 1014 10 N 1.8
Oggi h: 02:50 sereno Sereno 24 18 69 1014 10 N 3.7
Oggi h: 02:20 sereno Sereno 24 18 69 1014 10 N 5.5
Oggi h: 01:50 sereno Sereno 24 17 64 1014 10 N 5.5
Oggi h: 01:20 sereno Sereno 25 21 78 1014 10 N 5.5
Oggi h: 00:50 sereno Sereno 25 21 78 1014 10 N 1.8
Oggi h: 00:20 sereno Sereno 25 21 78 1014 10 N 1.8
Ieri h: 23:50 sereno Sereno 25 21 78 1014 10 N 5.5
Ieri h: 23:20 sereno Sereno 25 22 83 1014 10 N 5.5
Ieri h: 22:50 sereno Sereno 25 22 83 1014 10 S/SO 11.1
Ieri h: 22:20 sereno Sereno 26 23 83 1013 10 SO 13
Ieri h: 21:50 sereno Sereno 26 23 83 1013 10 SO 13
Ieri h: 21:20 sereno Sereno 26 22 78 1013 10 SO 14.8
Ieri h: 20:50 sereno Sereno 27 22 74 1013 10 SO 14.8
Ieri h: 20:20 sereno Sereno 28 22 69 1013 10 SO 20.3
Ieri h: 19:50 sereno Sereno 30 21 58 1013 10 S/SO 20.3